Rochester, NY

7:16 PM EDT on July 24, 2017 (GMT -0400)
Greater Rochester International

Weather History for KROC - March, 2012

Change the Weather History Date:

Friday, March 30, 2012

  Actual Average Record
Temperature  
Mean Temperature 36 °F 40 °F  
Max Temperature 44 °F 48 °F 83 °F (1986)
Min Temperature 28 °F 31 °F 13 °F (1887)
Degree Days  
Heating Degree Days 29 25  
Month to date heating degree days 517 927  
Since 1 July heating degree days 4529 5713  
Cooling Degree Days 0 0  
Month to date cooling degree days 5 0  
Year to date cooling degree days 5 0  
Moisture  
Dew Point 25 °F    
Average Humidity 65    
Maximum Humidity 89    
Minimum Humidity 40    
Precipitation  
Precipitation 0.17 in 0.08 in 1.30 in (1951)
Month to date precipitation 1.26 2.41  
Year to date precipitation 6.71 6.77  
Snow  
Snow 1.00 in 0.30 in 5.50 in (1881)
Month to date snowfall 4.7 16.0  
Since 1 July snowfall 57.1 94.9  
Snow Depth 0.00 in    
Sea Level Pressure  
Sea Level Pressure 30.03 in    
Wind  
Wind Speed 9 mph (ENE)    
Max Wind Speed 20 mph    
Max Gust Speed 23 mph    
Visibility 7 miles    
Events Snow    
T = Trace of Precipitation, MM = Missing Value Source: NWS Daily Summary

Daily Weather History Graph

Daily Weather History Graph

Search for Another Location

Airport or City:

Trip Planner

Search our weather history database for the weather conditions in past years. The results will help you decide how hot, cold, wet, or windy it might be!

Date:

Astronomy

Mar. 30, 2012 Rise Set
Actual Time 6:55 AM EDT 7:35 PM EDT
Civil Twilight 6:26 AM EDT 8:04 PM EDT
Nautical Twilight 5:52 AM EDT 8:38 PM EDT
Astronomical Twilight 5:17 AM EDT 9:13 PM EDT
Moon 11:51 AM EDT (3/30) 2:17 AM EDT (3/30)
Length of Visible Light 13h 37m
Length of Day
12h 39m
Waxing Crescent, 49% of the Moon is Illuminated
Mar 30
Waxing Crescent
Mar 30
First Quarter
Apr 6
Full
Apr 13
Last Quarter
Apr 21
New

Hourly Weather History & Observations

Time (EDT) Temp. Windchill Dew Point Humidity Pressure Visibility Wind Dir Wind Speed Gust Speed Precip Events Conditions
12:54 AM 37.0 °F 32.4 °F 24.1 °F 59% 30.13 in 10.0 mi NW 5.8 mph - N/A   Overcast
1:54 AM 36.0 °F 29.6 °F 24.1 °F 62% 30.13 in 10.0 mi North 8.1 mph - N/A   Overcast
2:54 AM 35.1 °F 29.3 °F 24.1 °F 64% 30.13 in 10.0 mi North 6.9 mph - N/A   Overcast
3:54 AM 33.1 °F 28.7 °F 24.1 °F 70% 30.13 in 10.0 mi North 4.6 mph - N/A   Overcast
4:54 AM 32.0 °F 28.7 °F 24.1 °F 73% 30.14 in 10.0 mi NW 3.5 mph - N/A   Mostly Cloudy
5:54 AM 28.9 °F 25.2 °F 23.0 °F 78% 30.13 in 10.0 mi NNW 3.5 mph - N/A   Partly Cloudy
6:54 AM 28.0 °F - 23.0 °F 81% 30.14 in 10.0 mi Calm Calm - N/A   Scattered Clouds
7:54 AM 30.9 °F - 25.0 °F 79% 30.15 in 10.0 mi Calm Calm - N/A   Scattered Clouds
8:54 AM 36.0 °F 31.1 °F 23.0 °F 59% 30.15 in 10.0 mi East 5.8 mph - N/A   Scattered Clouds
9:54 AM 37.9 °F 31.5 °F 21.9 °F 53% 30.15 in 10.0 mi East 9.2 mph - N/A   Mostly Cloudy
10:54 AM 39.9 °F 33.4 °F 24.1 °F 53% 30.15 in 10.0 mi NE 10.4 mph - N/A   Mostly Cloudy
11:54 AM 39.9 °F 33.9 °F 21.9 °F 49% 30.13 in 10.0 mi ENE 9.2 mph - N/A   Scattered Clouds
12:54 PM 42.1 °F 37.1 °F 23.0 °F 47% 30.09 in 10.0 mi ENE 8.1 mph - N/A   Scattered Clouds
1:54 PM 44.1 °F 42.5 °F 23.0 °F 43% 30.06 in 10.0 mi Variable 3.5 mph - N/A   Mostly Cloudy
2:54 PM 43.0 °F 36.4 °F 25.0 °F 49% 30.02 in 10.0 mi NNE 12.7 mph - N/A   Overcast
3:54 PM 42.1 °F 34.5 °F 21.9 °F 45% 30.03 in 10.0 mi NNE 15.0 mph - N/A   Overcast
4:54 PM 39.9 °F 32.5 °F 18.0 °F 41% 29.98 in 10.0 mi East 12.7 mph - N/A   Overcast
5:54 PM 39.9 °F 31.4 °F 18.0 °F 41% 29.92 in 10.0 mi East 16.1 mph 19.6 mph N/A   Overcast
6:54 PM 37.9 °F 30.0 °F 19.0 °F 47% 29.96 in 10.0 mi NE 12.7 mph - N/A   Overcast
7:54 PM 37.0 °F 29.3 °F 21.0 °F 52% 29.97 in 10.0 mi ENE 11.5 mph - N/A   Overcast
8:03 PM 37.4 °F 29.3 °F 21.2 °F 52% 29.96 in 10.0 mi ENE 12.7 mph - 0.00 in Snow Light Snow
8:29 PM 35.6 °F 27.5 °F 23.0 °F 60% 29.96 in 2.0 mi ENE 11.5 mph - 0.00 in Snow Light Snow
8:39 PM 35.6 °F 27.5 °F 24.8 °F 65% 29.98 in 2.0 mi East 11.5 mph 18.4 mph 0.00 in Snow Light Snow
8:48 PM 33.8 °F 26.4 °F 26.6 °F 75% 29.98 in 1.8 mi East 9.2 mph - N/A Snow Light Snow
8:54 PM 34.0 °F 26.0 °F 27.0 °F 75% 30.00 in 1.8 mi East 10.4 mph - 0.00 in Snow Light Snow
9:01 PM 33.8 °F 24.8 °F 28.4 °F 81% 29.98 in 0.8 mi East 12.7 mph - 0.01 in Snow Light Snow
9:45 PM 32.0 °F 23.0 °F 30.2 °F 93% 29.96 in 1.0 mi East 11.5 mph - 0.06 in Snow Light Snow
9:54 PM 33.1 °F 24.4 °F 30.9 °F 92% 29.97 in 1.0 mi East 11.5 mph - 0.07 in Snow Light Snow
9:58 PM 33.8 °F 26.4 °F 30.2 °F 87% 29.95 in 1.2 mi East 9.2 mph - 0.00 in Snow Light Snow
10:03 PM 33.8 °F 25.3 °F 30.2 °F 87% 29.95 in 0.8 mi East 11.5 mph - 0.00 in Snow Light Snow
10:30 PM 33.8 °F 25.3 °F 30.2 °F 87% 29.94 in 1.5 mi East 11.5 mph - 0.05 in Snow Light Snow
10:34 PM 33.8 °F 25.8 °F 30.2 °F 87% 29.95 in 2.0 mi East 10.4 mph - 0.05 in Snow Light Snow
10:54 PM 33.1 °F 24.4 °F 30.9 °F 92% 29.96 in 2.0 mi ENE 11.5 mph - 0.06 in Snow Light Snow
11:54 PM 33.1 °F 24.4 °F 30.9 °F 92% 29.93 in 2.0 mi ENE 11.5 mph - 0.03 in Snow Light Snow